Wahoo, NE

2:24 PM CDT on July 22, 2017 (GMT -0500)
Wahoo Municipal

Weather History for KAHQ - February, 2014

Change the Weather History Date:

Tuesday, February 4, 2014

  Actual Average Record
Temperature  
Mean Temperature 13 °F -  
Max Temperature 23 °F 32 °F 51 °F (1967)
Min Temperature 3 °F 14 °F -16 °F (1989)
Degree Days  
Heating Degree Days 52    
Moisture  
Dew Point 10 °F    
Average Humidity 78    
Maximum Humidity 84    
Minimum Humidity 61    
Precipitation  
Precipitation 0.00 in - - ()
Sea Level Pressure  
Sea Level Pressure 30.27 in    
Wind  
Wind Speed 10 mph (NE)    
Max Wind Speed 28 mph    
Max Gust Speed 33 mph    
Visibility 5 miles    
Events Snow    
Averages and records for this station are not official NWS values.
T = Trace of Precipitation, MM = Missing Value Source: NWS Daily Summary

Daily Weather History Graph

Daily Weather History Graph

Search for Another Location

Airport or City:

Trip Planner

Search our weather history database for the weather conditions in past years. The results will help you decide how hot, cold, wet, or windy it might be!

Date:

Astronomy

Feb. 04, 2014 Rise Set
Actual Time 7:34 AM CST 5:46 PM CST
Civil Twilight 7:05 AM CST 6:15 PM CST
Nautical Twilight 6:32 AM CST 6:48 PM CST
Astronomical Twilight 6:00 AM CST 7:20 PM CST
Moon 10:09 AM CST (2/4) 11:46 PM CST (2/4)
Length of Visible Light 11h 10m
Length of Day
10h 12m
Waxing Crescent, 29% of the Moon is Illuminated
Feb 4
Waxing Crescent
Feb 6
First Quarter
Feb 14
Full
Feb 22
Last Quarter
Mar 1
New

Hourly Weather History & Observations

Time (CST) Temp. Windchill Dew Point Humidity Pressure Visibility Wind Dir Wind Speed Gust Speed Precip Events Conditions
12:15 AM 23.4 °F 16.2 °F 11.8 °F 61% 30.23 in 10.0 mi ESE 5.8 mph - N/A   Overcast
12:35 AM 23.0 °F 17.0 °F 11.8 °F 62% 30.23 in 10.0 mi ESE 4.6 mph - N/A   Overcast
12:55 AM 23.0 °F 18.4 °F 11.8 °F 62% 30.23 in 10.0 mi East 3.5 mph - N/A   Overcast
1:15 AM 23.0 °F 17.0 °F 11.8 °F 62% 30.23 in 10.0 mi East 4.6 mph - N/A   Overcast
1:35 AM 23.0 °F 17.0 °F 12.0 °F 63% 30.22 in 10.0 mi East 4.6 mph - N/A   Overcast
1:55 AM 23.0 °F 17.0 °F 12.0 °F 63% 30.22 in 10.0 mi East 4.6 mph - N/A   Overcast
2:15 AM 23.0 °F 15.8 °F 12.2 °F 63% 30.22 in 10.0 mi East 5.8 mph - N/A   Overcast
2:35 AM 23.4 °F 16.2 °F 12.2 °F 62% 30.23 in 10.0 mi East 5.8 mph - N/A   Overcast
2:55 AM 23.0 °F 14.7 °F 14.5 °F 70% 30.24 in 10.0 mi ESE 6.9 mph - N/A   Overcast
3:15 AM 22.8 °F 14.5 °F 16.7 °F 77% 30.24 in 10.0 mi ESE 6.9 mph - N/A   Overcast
3:35 AM 22.8 °F 15.5 °F 17.2 °F 79% 30.23 in 10.0 mi East 5.8 mph - N/A   Overcast
3:55 AM 23.0 °F 17.0 °F 17.4 °F 79% 30.24 in 10.0 mi East 4.6 mph - N/A   Overcast
4:15 AM 23.0 °F 17.0 °F 17.6 °F 80% 30.23 in 10.0 mi ENE 4.6 mph - N/A   Overcast
4:35 AM 23.0 °F 17.0 °F 17.6 °F 80% 30.23 in 10.0 mi ENE 4.6 mph - N/A   Overcast
4:55 AM 23.0 °F 17.0 °F 17.6 °F 80% 30.24 in 10.0 mi ENE 4.6 mph - N/A   Overcast
5:15 AM 23.2 °F 16.0 °F 18.0 °F 80% 30.24 in 10.0 mi ENE 5.8 mph - N/A   Overcast
5:35 AM 23.0 °F 14.7 °F 17.4 °F 79% 30.25 in 10.0 mi NE 6.9 mph - N/A   Overcast
5:55 AM 23.0 °F 14.7 °F 16.2 °F 75% 30.25 in 10.0 mi NE 6.9 mph - N/A   Overcast
6:15 AM 23.0 °F 15.8 °F 16.7 °F 77% 30.25 in 10.0 mi ENE 5.8 mph - N/A   Overcast
6:35 AM 23.0 °F 13.1 °F 17.6 °F 80% 30.25 in 10.0 mi ENE 9.2 mph - N/A   Overcast
6:55 AM 23.0 °F 13.9 °F 18.1 °F 82% 30.25 in 10.0 mi ENE 8.1 mph - N/A   Overcast
7:15 AM 23.2 °F 15.0 °F 18.3 °F 82% 30.25 in 10.0 mi ENE 6.9 mph - N/A   Overcast
7:35 AM 23.4 °F 14.3 °F 18.9 °F 83% 30.25 in 7.0 mi East 8.1 mph - N/A Snow Light Snow
7:55 AM 23.0 °F 12.4 °F 18.7 °F 84% 30.24 in 10.0 mi ENE 10.4 mph - N/A   Overcast
8:15 AM 23.0 °F 12.4 °F 18.9 °F 84% 30.23 in 10.0 mi NNE 10.4 mph - N/A   Overcast
8:35 AM 23.0 °F 11.7 °F 18.5 °F 83% 30.23 in 10.0 mi NNE 11.5 mph - N/A   Overcast
8:55 AM 22.5 °F 8.9 °F 16.7 °F 79% 30.23 in 10.0 mi NNE 16.1 mph - N/A   Overcast
9:15 AM 21.0 °F 6.6 °F 14.9 °F 77% 30.23 in 10.0 mi NNE 17.3 mph - N/A   Overcast
9:35 AM 20.1 °F 5.9 °F 14.4 °F 78% 30.24 in 10.0 mi NNE 16.1 mph - N/A   Overcast
9:55 AM 19.4 °F 5.5 °F 13.6 °F 78% 30.25 in 10.0 mi NE 15.0 mph 18.4 mph N/A   Overcast
10:15 AM 19.4 °F 5.5 °F 13.6 °F 78% 30.25 in 10.0 mi NNE 15.0 mph 19.6 mph N/A   Overcast
10:35 AM 19.0 °F 5.0 °F 13.1 °F 78% 30.26 in 10.0 mi NNE 15.0 mph - N/A   Overcast
10:55 AM 18.5 °F 4.3 °F 13.5 °F 81% 30.26 in 1.8 mi NNE 15.0 mph - N/A Snow Light Snow
11:15 AM 17.6 °F 2.2 °F 12.9 °F 82% 30.25 in 1.2 mi NNE 17.3 mph - N/A Snow Light Snow
11:35 AM 17.6 °F 2.2 °F 12.6 °F 81% 30.24 in 2.5 mi NNE 17.3 mph - N/A Snow Light Snow
11:55 AM 17.2 °F 1.2 °F 12.2 °F 81% 30.24 in 1.0 mi NNE 18.4 mph 23.0 mph N/A Snow Light Snow
12:15 PM 17.2 °F 2.2 °F 12.6 °F 82% 30.24 in 1.0 mi NNE 16.1 mph 21.9 mph N/A Snow Light Snow
12:35 PM 17.2 °F 1.7 °F 12.4 °F 81% 30.24 in 1.2 mi NNE 17.3 mph - N/A Snow Light Snow
12:55 PM 16.7 °F 1.5 °F 12.2 °F 82% 30.23 in 1.2 mi NNE 16.1 mph 23.0 mph N/A Snow Light Snow
1:15 PM 16.9 °F 1.7 °F 12.4 °F 82% 30.24 in 1.0 mi North 16.1 mph - N/A Snow Light Snow
1:35 PM 16.7 °F 1.5 °F 12.6 °F 84% 30.24 in 0.5 mi North 16.1 mph - N/A Snow Light Snow
1:55 PM 16.7 °F 0.1 °F 12.6 °F 84% 30.24 in 0.5 mi NNE 19.6 mph - N/A Snow Light Snow
2:15 PM 16.5 °F -0.1 °F 12.0 °F 82% 30.23 in 0.5 mi NNE 19.6 mph 27.6 mph N/A Snow Light Snow
2:35 PM 15.8 °F -1.5 °F 11.3 °F 82% 30.22 in 0.5 mi North 20.7 mph 26.5 mph N/A Snow Light Snow
2:55 PM 15.4 °F -2.4 °F 10.4 °F 80% 30.22 in 1.0 mi NNE 21.9 mph 29.9 mph N/A Snow Light Snow
3:15 PM 15.1 °F -1.6 °F 10.6 °F 82% 30.22 in 0.8 mi NNE 18.4 mph 25.3 mph N/A Snow Light Snow
3:35 PM 14.7 °F -2.9 °F 10.0 °F 82% 30.22 in 0.8 mi North 20.7 mph 27.6 mph N/A Snow Light Snow
3:55 PM 13.8 °F -5.3 °F 8.8 °F 80% 30.22 in 0.5 mi NNE 24.2 mph - N/A Snow Light Snow
4:15 PM 13.5 °F -4.6 °F 8.6 °F 81% 30.23 in 0.5 mi NNE 20.7 mph - N/A Snow Light Snow
4:35 PM 12.0 °F - 7.3 °F 81% 30.24 in 0.5 mi North - - N/A Snow Light Snow
4:55 PM 10.6 °F - 5.7 °F 81% 30.24 in 0.8 mi North - - N/A Snow Light Snow
5:15 PM 9.9 °F - 5.0 °F 81% 30.25 in 0.8 mi North - - N/A Snow Light Snow
5:35 PM 9.1 °F - 4.3 °F 81% 30.27 in 0.8 mi North - - N/A Snow Light Snow
6:15 PM 8.4 °F - 3.6 °F 81% 30.29 in 1.5 mi North - - N/A Snow Light Snow
6:35 PM 8.2 °F - 3.2 °F 80% 30.30 in 1.0 mi North - - N/A Snow Light Snow
6:55 PM 8.2 °F - 3.2 °F 80% 30.31 in 1.2 mi North - - N/A Snow Light Snow
7:15 PM 7.7 °F - 3.0 °F 81% 30.32 in 1.0 mi North - - N/A Snow Light Snow
7:35 PM 7.3 °F - 2.3 °F 80% 30.32 in 1.2 mi North - - N/A Snow Light Snow
7:55 PM 6.8 °F - 1.6 °F 79% 30.33 in 1.2 mi North - - N/A Snow Light Snow
8:15 PM 6.4 °F -16.0 °F 1.2 °F 79% 30.33 in 1.2 mi North 26.5 mph - N/A Snow Light Snow
8:35 PM 6.3 °F - 1.0 °F 79% 30.34 in 1.2 mi North - - N/A Snow Light Snow
8:55 PM 5.9 °F - 0.9 °F 80% 30.35 in 1.2 mi North - - N/A Snow Light Snow
9:15 PM 5.7 °F -17.3 °F 0.3 °F 78% 30.36 in 1.5 mi North 27.6 mph - N/A Snow Light Snow
9:35 PM 5.5 °F - 0.3 °F 79% 30.37 in 1.8 mi North - - N/A Snow Light Snow
9:55 PM 5.0 °F - -0.4 °F 78% 30.38 in 1.5 mi North - - N/A Snow Light Snow
10:15 PM 4.8 °F - -0.8 °F 78% 30.39 in 1.2 mi North - - N/A Snow Light Snow
10:35 PM 4.5 °F - -1.1 °F 78% 30.39 in 1.2 mi North - - N/A Snow Light Snow
10:55 PM 4.1 °F - -1.5 °F 78% 30.40 in 1.5 mi North - - N/A Snow Light Snow
11:15 PM 4.1 °F - -1.5 °F 78% 30.40 in 1.8 mi North - - N/A Snow Light Snow
11:35 PM 3.7 °F - -2.0 °F 77% 30.41 in 1.5 mi North - - N/A Snow Light Snow
11:55 PM 3.2 °F -19.5 °F -2.9 °F 76% 30.41 in 1.8 mi North 24.2 mph 33.4 mph N/A Snow Light Snow